BCS830 EDDP-LIML

Flight info

Callsign BCS830
Flight time N/A
Altitude 40000
Route NEVKO2E/08R NEVKO Q243 BAMKI Z94 KOMIB DCT TEDGO DCT SONOM/N0471F390 DCT GERSA DCT SOSON DCT DEGAD Z424 RIXUV
Aircraft A333/H-SDE3GHIJ2J3J5M1RVWXY/LB2D1

Departure

Time N/A
Airport Leipzig/Halle Airport (EDDP)

Arrival

Time 2026-05-05 20:57
Airport Milano Linate Airport (LIML)
Time Latitude Longitude Altitude Speed Heading
2026-05-05 20:44 45.67199 8.92354 8989 ft 230 kts 161°
2026-05-05 20:45 45.64518 8.94938 8990 ft 236 kts 143°
2026-05-05 20:45 45.63244 8.96410 8988 ft 236 kts 143°
2026-05-05 20:45 45.62009 8.97955 8988 ft 236 kts 142°
2026-05-05 20:46 45.60742 8.99453 8986 ft 236 kts 143°
2026-05-05 20:46 45.59471 9.00931 8985 ft 236 kts 143°
2026-05-05 20:46 45.58197 9.02418 8986 ft 236 kts 143°
2026-05-05 20:46 45.56938 9.03895 8989 ft 236 kts 143°
2026-05-05 20:47 45.55668 9.05386 8985 ft 236 kts 143°
2026-05-05 20:47 45.54397 9.06877 8989 ft 236 kts 143°
2026-05-05 20:47 45.53125 9.08371 8996 ft 237 kts 143°
2026-05-05 20:47 45.51862 9.09854 8985 ft 237 kts 143°
2026-05-05 20:48 45.50594 9.11342 8988 ft 236 kts 143°
2026-05-05 20:48 45.49292 9.12766 8986 ft 234 kts 154°
2026-05-05 20:48 45.47762 9.13415 8991 ft 229 kts 174°
2026-05-05 20:48 45.46172 9.13620 8991 ft 230 kts 178°
2026-05-05 20:49 45.44577 9.13766 8989 ft 230 kts 176°
2026-05-05 20:49 45.43004 9.14219 8988 ft 232 kts 166°
2026-05-05 20:49 45.41468 9.14928 8995 ft 232 kts 163°
2026-05-05 20:49 45.39935 9.15672 8875 ft 234 kts 163°
2026-05-05 20:50 45.38390 9.16424 8591 ft 234 kts 163°
2026-05-05 20:50 45.36859 9.17166 8369 ft 231 kts 163°
2026-05-05 20:50 45.35348 9.17895 8114 ft 229 kts 163°
2026-05-05 20:50 45.33846 9.18619 7808 ft 227 kts 163°
2026-05-05 20:51 45.32367 9.19332 7397 ft 223 kts 163°
2026-05-05 20:51 45.30905 9.20036 6964 ft 219 kts 163°
2026-05-05 20:51 45.29509 9.20708 6773 ft 204 kts 163°
2026-05-05 20:51 45.28209 9.21337 6591 ft 192 kts 163°
2026-05-05 20:52 45.26963 9.21941 6282 ft 188 kts 163°
2026-05-05 20:52 45.25770 9.22690 5887 ft 190 kts 145°
2026-05-05 20:52 45.25044 9.24263 5464 ft 197 kts 107°
2026-05-05 20:52 45.25144 9.26201 5094 ft 203 kts 70°
2026-05-05 20:53 45.26023 9.27754 4742 ft 204 kts 40°
2026-05-05 20:53 45.27180 9.28908 4390 ft 202 kts 31°
2026-05-05 20:53 45.28513 9.29457 4043 ft 200 kts
2026-05-05 20:53 45.29890 9.29331 3730 ft 197 kts 353°
2026-05-05 20:54 45.31269 9.29125 3246 ft 201 kts 355°
2026-05-05 20:54 45.32656 9.28975 2739 ft 198 kts 357°
2026-05-05 20:54 45.34021 9.28834 2267 ft 193 kts 358°
2026-05-05 20:54 45.35316 9.28695 2001 ft 179 kts 358°
2026-05-05 20:55 45.36503 9.28566 1771 ft 164 kts 359°
2026-05-05 20:55 45.37595 9.28448 1556 ft 151 kts 359°
2026-05-05 20:55 45.38601 9.28340 1359 ft 141 kts 359°
2026-05-05 20:55 45.39567 9.28238 1167 ft 139 kts 359°
2026-05-05 20:56 45.40533 9.28134 965 ft 140 kts 358°
2026-05-05 20:56 45.41496 9.28031 774 ft 138 kts 357°
2026-05-05 20:56 45.42448 9.27926 591 ft 137 kts 358°
2026-05-05 20:56 45.43379 9.27830 411 ft 135 kts 356°
2026-05-05 20:57 45.44285 9.27742 359 ft 116 kts 358°
2026-05-05 20:57 45.44825 9.27675 368 ft 46 kts 356°
2026-05-05 20:57 45.45124 9.27645 369 ft 41 kts 356°
2026-05-05 20:57 45.45367 9.27698 370 ft 33 kts 25°
2026-05-05 20:58 45.45447 9.27775 372 ft 0 kts 45°
2026-05-05 20:59 45.45456 9.27788 373 ft 5 kts 43°
2026-05-05 20:59 45.45500 9.27813 372 ft 7 kts
2026-05-05 20:59 45.45543 9.27816 369 ft 5 kts
2026-05-05 20:59 45.45577 9.27818 369 ft 5 kts
2026-05-05 21:00 45.45620 9.27818 373 ft 8 kts
2026-05-05 21:00 45.45688 9.27818 371 ft 12 kts
2026-05-05 21:00 45.45779 9.27819 374 ft 13 kts
2026-05-05 21:00 45.45822 9.27855 373 ft 4 kts 76°
2026-05-05 21:01 45.45820 9.27885 370 ft 3 kts 92°
2026-05-05 21:01 45.45819 9.27901 373 ft 0 kts 92°